Погода в Улус-Керте

Россия / Чеченская Республика     42°59′14″N   45°45′55″E
темп.,
°C
ветер,
м/с
пор.,
м/с
влажн.,
%
обл.,
%
осадки,
мм/ч
давл.,
гПа
погр.,
м
26 октября, вт
вт2600:00+2зсз1398100 1.9 1032331
03:00+2с1399100 3.5 1033371
06:00+2ююв019486 0.5 1034196
09:00+4с2278100 0.5 1033554
12:00+4с217699 0.1 1032795
15:00+5ссв117384 0.1 1031616
18:00+4всв118181 0.0 103378
21:00+2юв118514 0.0 103323
27 октября, ср
ср2700:000ю22824 0.0 103224
03:000ююв22762 0.0 103219
06:000ю22740 0.0 103220
09:00+5ссв11570 0.0 1029257
12:00+8ссв22550 0.0 1027566
15:00+9с21550 0.0 1025537
18:00+4ю11780 0.0 102613
21:00+4ю22780 0.0 102519
28 октября, чт
чт2800:00+3ю22720 0.0 102421
03:00+3ю22680 0.0 102420
06:00+3ю22640 0.0 102427
09:00+10ссз10470 0.0 1024168
12:00+12ссз22410 0.0 1023566
15:00+12ссз22420 0.0 1022763
18:00+6ю216381 0.0 102511
21:00+6ю2269100 0.0 102523
29 октября, пт
пт2900:00+5ю2270100 0.0 102422
03:00+5ю216997 0.0 102417
06:00+5ю2267100 0.0 102525
09:00+9зюз015283 0.0 1025345
12:00+12ссз224586 0.0 1023838
15:00+12сз344777 0.0 10241115
18:00+8ююз116993 0.0 102715
21:00+7сз127998 0.1 1027148
30 октября, сб
сб3000:00+7зсз1491100 1.1 1028511
03:00+7сз1495100 3.9 1029435
06:00+5ссз2498100 4.6 1031582
09:00+4с1196100 9.1 1034369
12:00+5зюз0192100 1.3 1034447
15:00+6ссв118378 1.3 1034463
18:00+5всв118840 0.0 103544
21:00+3ююв22873 0.0 103622